| time (UTC) | temp F | wind direction | speed knots | gust knots | rain 1hr in | rain 24hr in | rain mn in | humidity % | barometer mb |
| 20260506044522 | 56 | 243 | 12.2 | 24.3 | 0.00 | 0.00 | 0.00 | 88 | 1012.7 |
| 20260506043017 | 56 | 192 | 12.2 | 22.6 | 0.00 | 0.00 | 0.00 | 88 | 1012.8 |
| 20260506041514 | 56 | 210 | 10.4 | 27.8 | 0.00 | 0.00 | 0.00 | 88 | 1012.8 |
| 20260506040014 | 57 | 235 | 10.4 | 21.7 | 0.00 | 0.00 | 0.00 | 87 | 1012.8 |
| 20260506034511 | 57 | 212 | 13.0 | 21.7 | 0.00 | 0.00 | 0.00 | 86 | 1012.8 |
| 20260506033008 | 57 | 189 | 13.0 | 24.3 | 0.00 | 0.00 | 0.00 | 86 | 1012.8 |
| 20260506031513 | 57 | 171 | 12.2 | 20.0 | 0.00 | 0.00 | 0.00 | 86 | 1012.7 |
| 20260506030007 | 57 | 210 | 11.3 | 20.0 | 0.00 | 0.00 | 0.00 | 86 | 1012.9 |
| 20260506024504 | 57 | 174 | 12.2 | 21.7 | 0.00 | 0.00 | 0.00 | 86 | 1013.0 |
| 20260506023002 | 57 | 195 | 10.4 | 21.7 | 0.00 | 0.00 | 0.00 | 86 | 1012.9 |
| 20260506021502 | 57 | 194 | 10.4 | 20.9 | 0.00 | 0.00 | 0.00 | 87 | 1013.1 |
| 20260506020100 | 57 | 237 | 9.6 | 21.7 | 0.00 | 0.00 | 0.00 | 86 | 1012.9 |
| 20260506014602 | 58 | 179 | 13.0 | 23.5 | 0.00 | 0.00 | 0.00 | 85 | 1012.9 |
| 20260506013101 | 58 | 198 | 13.0 | 21.7 | 0.00 | 0.00 | 0.00 | 84 | 1012.7 |
| 20260506011559 | 58 | 192 | 14.8 | 25.2 | 0.00 | 0.00 | 0.00 | 84 | 1012.6 |
| 20260506010059 | 59 | 189 | 12.2 | 20.9 | 0.00 | 0.00 | 0.00 | 83 | 1012.6 |
| 20260506004625 | 59 | 206 | 12.2 | 22.6 | 0.00 | 0.00 | 0.00 | 82 | 1012.5 |
| 20260506003056 | 59 | 184 | 13.9 | 20.9 | 0.00 | 0.00 | 0.00 | 82 | 1012.4 |
| 20260506001553 | 60 | 232 | 14.8 | 21.7 | 0.00 | 0.00 | 0.00 | 81 | 1012.1 |
| 20260506000053 | 59 | 200 | 14.8 | 22.6 | 0.00 | 0.00 | 0.00 | 82 | 1011.9 |
| 20260505234612 | 59 | 185 | 13.9 | 26.9 | 0.00 | 0.00 | 0.00 | 82 | 1011.5 |
| 20260505233051 | 60 | 186 | 14.8 | 27.8 | 0.00 | 0.00 | 0.00 | 82 | 1011.3 |
| 20260505231551 | 59 | 225 | 14.8 | 28.7 | 0.00 | 0.00 | 0.00 | 82 | 1011.2 |
| 20260505230051 | 60 | 202 | 13.0 | 24.3 | 0.00 | 0.00 | 0.00 | 82 | 1010.9 |
| 20260505224549 | 60 | 191 | 13.9 | 26.9 | 0.00 | 0.00 | 0.00 | 81 | 1010.8 |
| 20260505223059 | 60 | 185 | 16.5 | 26.1 | 0.00 | 0.00 | 0.00 | 82 | 1010.7 |
| 20260505221558 | 60 | 179 | 11.3 | 27.8 | 0.00 | 0.00 | 0.00 | 81 | 1010.8 |
| 20260505220057 | 60 | 206 | 13.9 | 27.8 | 0.00 | 0.00 | 0.00 | 80 | 1010.6 |
| 20260505214603 | 60 | 203 | 14.8 | 26.9 | 0.00 | 0.00 | 0.00 | 80 | 1010.6 |
| 20260505213047 | 61 | 201 | 13.0 | 22.6 | 0.00 | 0.00 | 0.00 | 80 | 1010.4 |
| 20260505211544 | 61 | 218 | 13.0 | 23.5 | 0.00 | 0.00 | 0.00 | 80 | 1010.2 |
| 20260505210044 | 60 | 200 | 15.6 | 25.2 | 0.00 | 0.00 | 0.00 | 80 | 1010.2 |
| 20260505204544 | 60 | 186 | 13.0 | 21.7 | 0.00 | 0.00 | 0.00 | 81 | 1010.2 |
| 20260505203044 | 60 | 198 | 13.9 | 24.3 | 0.00 | 0.00 | 0.00 | 81 | 1010.2 |
| 20260505201540 | 60 | 187 | 13.0 | 24.3 | 0.00 | 0.00 | 0.00 | 81 | 1010.4 |
| 20260505200045 | 60 | 206 | 10.4 | 22.6 | 0.00 | 0.00 | 0.00 | 81 | 1010.5 |
| 20260505194539 | 61 | 184 | 12.2 | 20.0 | 0.00 | 0.00 | 0.00 | 81 | 1010.6 |
| 20260505193036 | 61 | 184 | 10.4 | 18.2 | 0.00 | 0.00 | 0.00 | 81 | 1011.0 |
| 20260505191535 | 61 | 186 | 8.7 | 20.0 | 0.00 | 0.00 | 0.00 | 80 | 1011.1 |
| 20260505190037 | 61 | 226 | 13.0 | 20.0 | 0.00 | 0.00 | 0.00 | 80 | 1011.3 |
| 20260505184532 | 61 | 181 | 10.4 | 17.4 | 0.00 | 0.00 | 0.00 | 81 | 1011.7 |
| 20260505183042 | 61 | 235 | 7.0 | 16.5 | 0.00 | 0.00 | 0.00 | 80 | 1011.9 |
| 20260505181529 | 62 | 237 | 6.1 | 11.3 | 0.00 | 0.00 | 0.00 | 80 | 1012.1 |
| 20260505180029 | 63 | 231 | 4.3 | 9.6 | 0.00 | 0.00 | 0.00 | 78 | 1012.3 |
| 20260505174526 | 62 | 212 | 4.3 | 8.7 | 0.00 | 0.00 | 0.00 | 80 | 1012.5 |
| 20260505173024 | 61 | 180 | 5.2 | 12.2 | 0.00 | 0.00 | 0.00 | 81 | 1012.5 |
| 20260505171524 | 61 | 189 | 5.2 | 12.2 | 0.00 | 0.00 | 0.00 | 81 | 1012.6 |
| 20260505170024 | 60 | 230 | 3.5 | 13.9 | 0.00 | 0.00 | 0.00 | 84 | 1012.7 |
| 20260505164523 | 60 | 196 | 7.0 | 13.0 | 0.00 | 0.00 | 0.00 | 81 | 1012.9 |
| 20260505163021 | 60 | 192 | 5.2 | 8.7 | 0.00 | 0.00 | 0.00 | 82 | 1012.9 |
| 20260505161620 | 61 | 182 | 6.1 | 13.0 | 0.00 | 0.00 | 0.00 | 81 | 1013.0 |
| 20260505153018 | 61 | 183 | 3.5 | 7.8 | 0.00 | 0.00 | 0.00 | 82 | 1013.2 |
| 20260505151516 | 60 | 214 | 6.1 | 10.4 | 0.00 | 0.00 | 0.00 | 83 | 1013.5 |
| 20260505124604 | 57 | 196 | 5.2 | 8.7 | 0.00 | 0.00 | 0.00 | 90 | 1013.2 |
| 20260505123057 | 56 | 215 | 4.3 | 9.6 | 0.00 | 0.00 | 0.00 | 90 | 1013.2 |
| 20260505121555 | 56 | 195 | 4.3 | 8.7 | 0.00 | 0.00 | 0.00 | 91 | 1013.0 |
| 20260505120058 | 55 | 195 | 3.5 | 7.8 | 0.00 | 0.00 | 0.00 | 91 | 1013.2 |
| 20260505114552 | 55 | 213 | 4.3 | 7.0 | 0.00 | 0.00 | 0.00 | 92 | 1013.3 |
| 20260505113054 | 55 | 194 | 1.7 | 5.2 | 0.00 | 0.00 | 0.00 | 92 | 1013.2 |
| 20260505111550 | 55 | 202 | 2.6 | 7.8 | 0.00 | 0.00 | 0.00 | 93 | 1013.2 |
| 20260505101545 | 53 | 186 | 3.5 | 8.7 | 0.00 | 0.00 | 0.00 | 93 | 1012.3 |
| 20260505100042 | 53 | 203 | 2.6 | 8.7 | 0.00 | 0.00 | 0.00 | 93 | 1012.1 |
| 20260505094542 | 53 | 179 | 3.5 | 7.8 | 0.00 | 0.00 | 0.00 | 93 | 1012.1 |
| 20260505093040 | 53 | 194 | 2.6 | 7.0 | 0.00 | 0.00 | 0.00 | 93 | 1012.1 |
| 20260505091539 | 53 | 185 | 3.5 | 6.1 | 0.00 | 0.00 | 0.00 | 93 | 1012.1 |
| 20260505090038 | 53 | 234 | 2.6 | 7.0 | 0.00 | 0.00 | 0.00 | 92 | 1012.0 |
| 20260505084544 | 53 | 194 | 2.6 | 7.0 | 0.00 | 0.00 | 0.00 | 92 | 1012.0 |
| 20260505083036 | 53 | 204 | 4.3 | 7.8 | 0.00 | 0.00 | 0.00 | 92 | 1012.1 |
| 20260505081533 | 53 | 214 | 4.3 | 7.8 | 0.00 | 0.00 | 0.00 | 92 | 1012.2 |
| 20260505080035 | 53 | 202 | 4.3 | 8.7 | 0.00 | 0.00 | 0.00 | 91 | 1012.2 |
| 20260505074534 | 53 | 195 | 4.3 | 8.7 | 0.00 | 0.00 | 0.00 | 91 | 1012.2 |
| 20260505073038 | 53 | 196 | 3.5 | 7.0 | 0.00 | 0.00 | 0.00 | 91 | 1012.2 |
| 20260505071526 | 53 | 198 | 4.3 | 8.7 | 0.00 | 0.00 | 0.00 | 91 | 1012.2 |
| 20260505070036 | 53 | 208 | 7.0 | 9.6 | 0.00 | 0.00 | 0.00 | 91 | 1012.1 |
| 20260505064521 | 53 | 217 | 6.1 | 10.4 | 0.00 | 0.00 | 0.00 | 91 | 1012.2 |
| 20260505063016 | 53 | 213 | 5.2 | 7.8 | 0.00 | 0.00 | 0.00 | 91 | 1012.3 |
| 20260505061520 | 53 | 200 | 4.3 | 8.7 | 0.00 | 0.00 | 0.00 | 91 | 1012.4 |
| 20260505060013 | 53 | 212 | 3.5 | 8.7 | 0.00 | 0.00 | 0.00 | 91 | 1012.6 |
| 20260505054511 | 53 | 236 | 2.6 | 6.1 | 0.00 | 0.00 | 0.00 | 90 | 1012.7 |